weather.gov     
National Weather Service

Terminal Aerodrome Forecast
NWS Homepage
This page is being discontinued on March 12, 2014.
The same data is available at this site. Please update your bookmarks.
Thank you, and we apologize for the inconvenience.
Please send an email to SR-SRH.Webmaster@noaa.gov with any concerns.


Current Version
Previous Version:    01  02  03  04  05  06  07  08  09  10  11  12  13  14  15  16  17  18  19  20  21  22  23  24  25  
[Printable]
587
FTUS44 KLZK 292300
TAFBPK
TAF
KBPK 292332Z 3000/3024 VRB06KT P6SM SCT070
     FM301000 16003KT P6SM VCSH SCT050 OVC100 PROB30 3013/3018 -RA
      BKN030
     FM301800 23005KT P6SM VCSH OVC050 PROB30 3018/3024 5SM -RA BR
      OVC030=


U.S. Dept. of Commerce
NOAA National Weather Service
1325 East West Highway
Silver Spring, MD 20910
E-mail: w-nws.webmaster@noaa.gov
Page last modified: May 16, 2007
NATIONAL WEATHER SERVICE: for Safety, for Work, for Fun - FOR LIFE